Weather History for Ionia, MI

Change the Weather History Date:

Tuesday, August 27, 2013

  Actual Average (KGRR) Record (KGRR)
Temperature  
Mean Temperature 81 °F 69 °F  
Max Temperature 91 °F 79 °F 95 °F (1953)
Min Temperature 71 °F 59 °F 42 °F (1915)
Degree Days  
Heating Degree Days 0 1  
Month to date heating degree days 5  
Since 1 June heating degree days 56  
Since 1 July heating degree days 11  
Cooling Degree Days 16 5  
Month to date cooling degree days 174  
Year to date cooling degree days 605  
Since 1 June cooling degree days 558  
Growing Degree Days 31 (Base 50)    
Moisture  
Dew Point 72 °F    
Average Humidity 79    
Maximum Humidity 96    
Minimum Humidity 57    
Precipitation  
Precipitation 0.73 in 0.12 in 2.08 in (1921)
Month to date precipitation 3.10  
Year to date precipitation 24.23  
Snow  
Snow 0.00 in 0.00 in 0.00 in ()
Month to date snowfall 0.0  
Since 1 June snowfall 0.0  
Since 1 July snowfall 0.0  
Snow Depth -    
Sea Level Pressure  
Sea Level Pressure 29.92 in    
Wind  
Wind Speed 7 mph (SW)    
Max Wind Speed 15 mph    
Max Gust Speed 21 mph    
Visibility 10 miles    
Events Rain    
T = Trace of Precipitation, MM = Missing Value Source: NWS Daily Summary

Daily Weather History Graph

Daily Weather History Graph

Search for Another Location

Airport:

Trip Planner

Search our weather history database for the weather conditions in past years. The results will help you decide how hot, cold, wet, or windy it might be!

Date:

Astronomy

Aug. 27, 2013 Rise Set
Actual Time 6:59 AM EDT 8:22 PM EDT
Civil Twilight 6:30 AM EDT 8:52 PM EDT
Nautical Twilight 5:54 AM EDT 9:27 PM EDT
Astronomical Twilight 5:16 AM EDT 10:05 PM EDT
Moon No Moon Rise 2:08 PM EDT (8/27)
Length of Visible Light 14h 22m
Length of Day
13h 23m
Waning Gibbous, 57% of the Moon is Illuminated
Aug 27
Waning Gibbous
Aug 28
Last Quarter
Sep 5
New
Sep 12
First Quarter
Sep 19
Full

Hourly Weather History & Observations

Time (EDT) Temp. Heat Index Dew Point Humidity Pressure Visibility Wind Dir Wind Speed Gust Speed Precip Events Conditions
12:14 AM 76.1 °F - 70.3 °F 82% 29.98 in 10.0 mi West 6.9 mph - N/A   Clear
12:34 AM 76.1 °F - 70.2 °F 82% 29.98 in 10.0 mi West 5.8 mph - N/A   Clear
12:54 AM 75.6 °F - 70.2 °F 83% 29.98 in 10.0 mi West 6.9 mph - N/A   Scattered Clouds
1:14 AM 75.4 °F - 70.2 °F 84% 29.98 in 10.0 mi West 5.8 mph - N/A   Overcast
1:34 AM 74.7 °F - 70.0 °F 85% 29.97 in 10.0 mi WSW 6.9 mph - N/A   Scattered Clouds
1:54 AM 74.5 °F - 70.0 °F 86% 29.97 in 10.0 mi WSW 5.8 mph - N/A   Clear
2:14 AM 74.3 °F - 69.8 °F 86% 29.96 in 10.0 mi WSW 5.8 mph - N/A   Clear
2:34 AM 74.1 °F - 70.0 °F 87% 29.96 in 10.0 mi WSW 5.8 mph - N/A   Clear
2:54 AM 74.1 °F - 70.0 °F 87% 29.96 in 10.0 mi WSW 6.9 mph - N/A   Clear
3:14 AM 74.5 °F - 70.2 °F 86% 29.96 in 10.0 mi West 5.8 mph - N/A   Clear
3:34 AM 75.2 °F - 70.2 °F 84% 29.95 in 10.0 mi West 6.9 mph - N/A   Clear
3:54 AM 75.7 °F - 70.5 °F 84% 29.95 in 10.0 mi WSW 6.9 mph - N/A   Scattered Clouds
4:14 AM 76.1 °F - 70.5 °F 83% 29.94 in 10.0 mi WSW 6.9 mph - N/A   Scattered Clouds
4:34 AM 76.1 °F - 70.7 °F 83% 29.94 in 10.0 mi WSW 6.9 mph - N/A   Mostly Cloudy
4:54 AM 76.5 °F - 70.7 °F 82% 29.93 in 10.0 mi WSW 9.2 mph - N/A   Overcast
5:14 AM 76.3 °F - 70.7 °F 83% 29.94 in 10.0 mi West 12.7 mph - N/A   Mostly Cloudy
5:34 AM 77.9 °F - 70.7 °F 78% 29.98 in 10.0 mi WNW 15.0 mph 19.6 mph N/A   Overcast
5:54 AM 74.8 °F - 71.8 °F 90% 30.00 in 3.0 mi North 11.5 mph 20.7 mph 0.15 in Rain Heavy Rain
6:14 AM 72.5 °F - 70.7 °F 94% 29.99 in 7.0 mi North 4.6 mph - 0.04 in Rain Rain
6:34 AM 72.5 °F - 71.1 °F 95% 30.00 in 10.0 mi North 4.6 mph - 0.05 in Rain Light Rain
6:54 AM 72.7 °F - 71.2 °F 95% 30.01 in 10.0 mi WNW 8.1 mph - 0.07 in Rain Rain
7:14 AM 72.5 °F - 70.0 °F 92% 30.00 in 10.0 mi Calm Calm - 0.02 in Rain Rain
7:34 AM 71.6 °F - 69.8 °F 94% 29.99 in 7.0 mi ENE 3.5 mph - 0.05 in Rain Light Rain
7:54 AM 71.4 °F - 69.8 °F 95% 29.98 in 10.0 mi SSE 3.5 mph - 0.06 in Rain Light Rain
8:14 AM 71.6 °F - 70.2 °F 95% 29.98 in 10.0 mi SSW 3.5 mph - 0.01 in Rain Light Rain
8:34 AM 71.8 °F - 70.3 °F 95% 29.98 in 10.0 mi SW 3.5 mph - 0.01 in Rain Light Rain
8:54 AM 71.8 °F - 70.7 °F 96% 29.97 in 10.0 mi North - - 0.01 in   Light Drizzle
9:14 AM 72.9 °F - 71.4 °F 95% 29.97 in 10.0 mi SW 9.2 mph - N/A   Clear
9:34 AM 73.6 °F - 71.8 °F 94% 29.94 in 10.0 mi South 9.2 mph - N/A   Clear
9:54 AM 74.7 °F - 72.1 °F 92% 29.95 in 10.0 mi SW 6.9 mph - N/A   Clear
10:14 AM 75.2 °F - 72.5 °F 91% 29.95 in 10.0 mi SW 8.1 mph - N/A   Clear
10:34 AM 76.1 °F - 73.0 °F 90% 29.95 in 10.0 mi SW 4.6 mph - N/A   Clear
10:54 AM 76.6 °F - 72.7 °F 87% 29.95 in 10.0 mi SSW 4.6 mph - N/A   Scattered Clouds
11:14 AM 77.9 °F - 72.9 °F 84% 29.95 in 10.0 mi SW 5.8 mph - N/A   Scattered Clouds
11:34 AM 79.2 °F - 71.8 °F 78% 29.95 in 10.0 mi SSW 9.2 mph - N/A   Clear
11:54 AM 79.9 °F - 72.0 °F 77% 29.94 in 10.0 mi SW 9.2 mph - N/A   Clear
12:14 PM 81.0 °F 85.4 °F 72.5 °F 75% 29.94 in 10.0 mi SW 5.8 mph - N/A   Clear
12:34 PM 81.9 °F 87.0 °F 72.7 °F 74% 29.93 in 10.0 mi SW 9.2 mph - N/A   Clear
12:54 PM 82.6 °F 88.3 °F 73.0 °F 73% 29.93 in 10.0 mi SW 8.1 mph - N/A   Clear
1:14 PM 82.8 °F 88.7 °F 73.2 °F 73% 29.93 in 10.0 mi SW 10.4 mph - N/A   Clear
1:34 PM 82.6 °F 88.6 °F 73.6 °F 74% 29.93 in 10.0 mi WSW 6.9 mph - N/A   Clear
1:54 PM 83.3 °F 90.2 °F 74.1 °F 74% 29.92 in 10.0 mi WSW 6.9 mph - N/A   Clear
2:14 PM 82.9 °F 89.4 °F 73.9 °F 74% 29.92 in 10.0 mi SSW 4.6 mph - N/A   Scattered Clouds
2:34 PM 83.1 °F 89.8 °F 73.9 °F 74% 29.92 in 10.0 mi Calm Calm - N/A   Scattered Clouds
2:54 PM 83.7 °F 90.4 °F 73.8 °F 72% 29.91 in 10.0 mi SSW 5.8 mph - N/A   Scattered Clouds
3:14 PM 86.0 °F 94.2 °F 74.1 °F 68% 29.90 in 10.0 mi SSW 11.5 mph - N/A   Clear
3:34 PM 87.1 °F 95.9 °F 74.5 °F 66% 29.89 in 10.0 mi WSW 9.2 mph - N/A   Clear
3:54 PM 88.0 °F 97.0 °F 74.3 °F 64% 29.87 in 10.0 mi SSW 11.5 mph - N/A   Clear
4:14 PM 88.7 °F 97.7 °F 74.3 °F 62% 29.87 in 10.0 mi SW 13.8 mph 18.4 mph N/A   Clear
4:34 PM 89.6 °F 98.2 °F 73.6 °F 59% 29.87 in 10.0 mi WSW 15.0 mph 19.6 mph N/A   Scattered Clouds
4:54 PM 91.0 °F 100.4 °F 73.9 °F 57% 29.86 in 10.0 mi WSW 12.7 mph - N/A   Scattered Clouds
5:14 PM 88.9 °F 97.6 °F 73.9 °F 61% 29.84 in 10.0 mi SW 12.7 mph - N/A   Scattered Clouds
5:34 PM 88.7 °F 96.2 °F 72.7 °F 59% 29.85 in 10.0 mi SW 9.2 mph 19.6 mph N/A   Scattered Clouds
5:54 PM 87.8 °F 95.6 °F 73.4 °F 62% 29.85 in 10.0 mi SW 10.4 mph - N/A   Scattered Clouds
6:14 PM 86.9 °F 94.1 °F 72.9 °F 63% 29.86 in 10.0 mi SW 8.1 mph - N/A   Scattered Clouds
6:34 PM 86.2 °F 93.0 °F 72.5 °F 64% 29.84 in 10.0 mi SW 9.2 mph - N/A   Clear
6:54 PM 86.0 °F 91.8 °F 71.4 °F 62% 29.84 in 10.0 mi SW 8.1 mph - N/A   Clear
7:14 PM 86.0 °F 91.5 °F 71.1 °F 61% 29.85 in 10.0 mi SW 5.8 mph - N/A   Mostly Cloudy
7:34 PM 84.4 °F 89.7 °F 71.4 °F 65% 29.85 in 10.0 mi Calm Calm - N/A   Overcast
7:54 PM 83.3 °F 88.4 °F 71.6 °F 68% 29.84 in 10.0 mi South 5.8 mph - N/A   Mostly Cloudy
8:14 PM 82.0 °F 87.0 °F 72.1 °F 72% 29.84 in 10.0 mi SSE 6.9 mph - N/A   Scattered Clouds
8:34 PM 81.5 °F 86.1 °F 72.1 °F 73% 29.83 in 10.0 mi SSE 8.1 mph - N/A   Mostly Cloudy
8:54 PM 80.6 °F 84.7 °F 72.1 °F 75% 29.84 in 10.0 mi South 3.5 mph - N/A   Mostly Cloudy
9:14 PM 80.8 °F 85.1 °F 72.1 °F 75% 29.83 in 10.0 mi South 6.9 mph - N/A   Mostly Cloudy
9:34 PM 82.4 °F 87.2 °F 71.6 °F 70% 29.82 in 10.0 mi SSW 10.4 mph - N/A   Mostly Cloudy
9:54 PM 82.4 °F 87.2 °F 71.6 °F 70% 29.82 in 10.0 mi SW 5.8 mph - N/A   Overcast
10:14 PM 81.3 °F 85.6 °F 71.6 °F 72% 29.82 in 10.0 mi WSW 5.8 mph - N/A   Overcast
10:34 PM 79.5 °F - 71.6 °F 77% 29.82 in 10.0 mi WSW 9.2 mph 18.4 mph N/A Rain Rain
10:54 PM 78.1 °F - 71.6 °F 80% 29.83 in 10.0 mi ENE 5.8 mph 17.3 mph N/A   Light Drizzle
11:14 PM 76.3 °F - 72.9 °F 89% 29.84 in 5.0 mi NNE 8.1 mph - 0.08 in Rain Rain
11:34 PM 74.5 °F - 73.0 °F 95% 29.83 in 7.0 mi East 3.5 mph - 0.15 in Rain Rain
11:54 PM 74.3 °F - 73.2 °F 96% 29.85 in 2.5 mi NNE 8.1 mph - 0.44 in Rain Heavy Rain